• In Czech Republic
  • List of Countries
  • For 7 days
  • Water Temperature
  • Satellite Maps
  • Weather Map
  • Weather Widgets
  • user-avatar
    Login

    Hourly Weather Bridgwater

    Today, 17 October, Wednesday

    Time Temperature Precipitation Wind Pressure Humidity
    00:00 +12°C° 0.1 mm 4 mps 761 mmHg 92%
    01:00 +13°C° 0.2 mm 4 mps 761 mmHg 93%
    02:00 +13°C° 0.2 mm 4 mps 761 mmHg 93%
    03:00 +13°C° 0.2 mm 3 mps 761 mmHg 94%
    04:00 +13°C° 0.2 mm 3 mps 761 mmHg 94%
    05:00 +13°C° 0.2 mm 3 mps 761 mmHg 94%
    06:00 +14°C° 0.2 mm 2 mps 761 mmHg 95%
    07:00 +14°C° 0.1 mm 2 mps 761 mmHg 93%
    08:00 +15°C° 0.1 mm 2 mps 762 mmHg 91%
    09:00 +15°C° 0.1 mm 2 mps 762 mmHg 89%
    10:00 +15°C° 0.1 mm 2 mps 762 mmHg 86%
    11:00 +16°C° 0.1 mm 2 mps 763 mmHg 83%
    12:00 +16°C° 0.1 mm 2 mps 763 mmHg 80%
    13:00 +16°C° 0 mm 2 mps 763 mmHg 80%
    14:00 +16°C° 0 mm 2 mps 763 mmHg 80%
    15:00 +16°C° 0 mm 3 mps 763 mmHg 80%
    16:00 +14°C° 0 mm 3 mps 764 mmHg 82%
    17:00 +13°C° 0 mm 3 mps 764 mmHg 84%
    18:00 +13°C° 0 mm 3 mps 765 mmHg 87%
    19:00 +12°C° 0 mm 4 mps 765 mmHg 88%
    20:00 +12°C° 0 mm 4 mps 766 mmHg 88%
    21:00 +12°C° 0 mm 5 mps 766 mmHg 89%
    22:00 +10°C° 0 mm 5 mps 767 mmHg 90%
    23:00 +10°C° 0 mm 5 mps 767 mmHg 90%

    Tomorrow, 18 October, Thursday

    Time Temperature Precipitation Wind Pressure Humidity
    00:00 +9°C° 0 mm 5 mps 767 mmHg 90%
    01:00 +9°C° 0 mm 5 mps 767 mmHg 89%
    02:00 +9°C° 0 mm 5 mps 767 mmHg 88%
    03:00 +8°C° 0 mm 6 mps 768 mmHg 87%
    04:00 +8°C° 0 mm 5 mps 768 mmHg 88%
    05:00 +8°C° 0 mm 5 mps 768 mmHg 89%
    06:00 +8°C° 0 mm 5 mps 768 mmHg 90%
    07:00 +8°C° 0 mm 5 mps 768 mmHg 89%
    08:00 +9°C° 0 mm 5 mps 768 mmHg 88%
    09:00 +10°C° 0 mm 5 mps 768 mmHg 87%
    10:00 +10°C° 0 mm 5 mps 768 mmHg 85%
    11:00 +12°C° 0 mm 5 mps 768 mmHg 84%
    12:00 +13°C° 0 mm 5 mps 768 mmHg 82%
    13:00 +13°C° 0 mm 4 mps 768 mmHg 81%
    14:00 +13°C° 0 mm 4 mps 768 mmHg 81%
    15:00 +14°C° 0 mm 4 mps 767 mmHg 80%
    16:00 +13°C° 0 mm 4 mps 767 mmHg 83%
    17:00 +12°C° 0 mm 3 mps 768 mmHg 85%
    18:00 +12°C° 0 mm 3 mps 768 mmHg 88%
    19:00 +11°C° 0 mm 3 mps 768 mmHg 88%
    20:00 +11°C° 0 mm 3 mps 768 mmHg 88%
    21:00 +11°C° 0 mm 3 mps 768 mmHg 88%
    22:00 +11°C° 0 mm 3 mps 768 mmHg 89%
    23:00 +10°C° 0 mm 2 mps 768 mmHg 89%

    Day after tomorrow, 19 October, Friday

    Time Temperature Precipitation Wind Pressure Humidity
    00:00 +10°C° 0 mm 2 mps 768 mmHg 90%
    01:00 +10°C° 0 mm 2 mps 768 mmHg 91%
    02:00 +10°C° 0 mm 2 mps 768 mmHg 91%
    03:00 +9°C° 0 mm 2 mps 767 mmHg 92%
    04:00 +9°C° 0 mm 2 mps 767 mmHg 92%
    05:00 +9°C° 0 mm 2 mps 768 mmHg 91%
    06:00 +9°C° 0 mm 2 mps 768 mmHg 91%
    07:00 +10°C° 0 mm 2 mps 768 mmHg 89%
    08:00 +12°C° 0 mm 1 mps 768 mmHg 86%
    09:00 +13°C° 0 mm 1 mps 768 mmHg 83%
    10:00 +14°C° 0 mm 1 mps 768 mmHg 78%
    11:00 +15°C° 0 mm 1 mps 769 mmHg 74%
    12:00 +18°C° 0 mm 1 mps 769 mmHg 69%
    13:00 +18°C° 0 mm 1 mps 769 mmHg 69%
    14:00 +18°C° 0 mm 1 mps 769 mmHg 69%
    15:00 +18°C° 0 mm 1 mps 768 mmHg 68%
    16:00 +16°C° 0 mm 1 mps 769 mmHg 74%
    17:00 +14°C° 0 mm 1 mps 769 mmHg 80%
    18:00 +13°C° 0 mm 1 mps 769 mmHg 86%
    19:00 +12°C° 0 mm 1 mps 770 mmHg 87%
    20:00 +12°C° 0 mm 1 mps 770 mmHg 88%
    21:00 +11°C° 0 mm 1 mps 770 mmHg 89%
    22:00 +11°C° 0 mm 1 mps 770 mmHg 89%
    23:00 +11°C° 0 mm 1 mps 771 mmHg 90%

    20 October, Saturday

    Time Temperature Precipitation Wind Pressure Humidity
    00:00 +11°C° 0 mm 1 mps 771 mmHg 90%
    01:00 +10°C° 0 mm 1 mps 771 mmHg 90%
    02:00 +10°C° 0 mm 1 mps 771 mmHg 90%
    03:00 +10°C° 0 mm 1 mps 771 mmHg 91%
    04:00 +10°C° 0 mm 1 mps 771 mmHg 91%
    05:00 +10°C° 0 mm 1 mps 771 mmHg 91%
    06:00 +9°C° 0 mm 1 mps 771 mmHg 91%
    07:00 +11°C° 0 mm 1 mps 772 mmHg 87%
    08:00 +12°C° 0 mm 1 mps 772 mmHg 84%
    09:00 +13°C° 0 mm 1 mps 772 mmHg 80%
    10:00 +14°C° 0 mm 1 mps 772 mmHg 75%
    11:00 +16°C° 0 mm 1 mps 772 mmHg 70%
    12:00 +18°C° 0 mm 1 mps 773 mmHg 65%
    13:00 +18°C° 0 mm 1 mps 772 mmHg 65%
    14:00 +18°C° 0 mm 1 mps 772 mmHg 64%
    15:00 +18°C° 0 mm 1 mps 772 mmHg 64%
    16:00 +16°C° 0 mm 1 mps 772 mmHg 70%
    17:00 +14°C° 0 mm 1 mps 772 mmHg 77%
    18:00 +12°C° 0 mm 1 mps 772 mmHg 83%
    19:00 +12°C° 0 mm 1 mps 772 mmHg 84%
    20:00 +12°C° 0 mm 1 mps 772 mmHg 85%
    21:00 +11°C° 0 mm 1 mps 772 mmHg 86%
    22:00 +11°C° 0 mm 1 mps 772 mmHg 86%
    23:00 +11°C° 0 mm 1 mps 772 mmHg 86%

    21 October, Sunday

    Time Temperature Precipitation Wind Pressure Humidity
    00:00 +11°C° 0 mm 1 mps 771 mmHg 87%
    01:00 +11°C° 0 mm 1 mps 771 mmHg 87%
    02:00 +10°C° 0 mm 1 mps 771 mmHg 87%
    03:00 +10°C° 0 mm 1 mps 771 mmHg 87%
    04:00 +10°C° 0 mm 1 mps 771 mmHg 87%
    05:00 +10°C° 0 mm 1 mps 771 mmHg 87%
    06:00 +10°C° 0 mm 1 mps 771 mmHg 87%
    07:00 +10°C° 0 mm 2 mps 771 mmHg 84%
    08:00 +13°C° 0 mm 2 mps 771 mmHg 80%
    09:00 +14°C° 0 mm 2 mps 770 mmHg 77%
    10:00 +15°C° 0 mm 2 mps 771 mmHg 74%
    11:00 +16°C° 0 mm 3 mps 771 mmHg 71%
    12:00 +17°C° 0 mm 3 mps 771 mmHg 68%
    13:00 +17°C° 0.1 mm 3 mps 771 mmHg 74%
    14:00 +16°C° 0.1 mm 3 mps 771 mmHg 80%
    15:00 +14°C° 0.1 mm 3 mps 771 mmHg 87%
    16:00 +14°C° 0 mm 4 mps 771 mmHg 88%
    17:00 +14°C° 0 mm 5 mps 772 mmHg 89%
    18:00 +13°C° 0 mm 5 mps 772 mmHg 90%
    19:00 +11°C° 0 mm 6 mps 773 mmHg 88%
    20:00 +10°C° 0 mm 6 mps 774 mmHg 86%
    21:00 +9°C° 0 mm 6 mps 774 mmHg 84%
    22:00 +9°C° 0 mm 6 mps 775 mmHg 83%
    23:00 +8°C° 0 mm 6 mps 775 mmHg 82%

    22 October, Monday

    Time Temperature Precipitation Wind Pressure Humidity
    00:00 +7°C° 0 mm 5 mps 776 mmHg 81%
    01:00 +7°C° 0 mm 5 mps 776 mmHg 81%
    02:00 +7°C° 0 mm 5 mps 776 mmHg 80%
    03:00 +6°C° 0 mm 5 mps 777 mmHg 79%
    04:00 +6°C° 0 mm 5 mps 777 mmHg 80%
    05:00 +6°C° 0 mm 4 mps 778 mmHg 81%
    06:00 +5°C° 0 mm 4 mps 778 mmHg 83%
    07:00 +6°C° 0 mm 4 mps 778 mmHg 80%
    08:00 +7°C° 0 mm 4 mps 779 mmHg 78%
    09:00 +8°C° 0 mm 4 mps 779 mmHg 75%
    10:00 +10°C° 0 mm 4 mps 779 mmHg 71%
    11:00 +11°C° 0 mm 4 mps 780 mmHg 67%
    12:00 +12°C° 0 mm 4 mps 780 mmHg 63%
    13:00 +12°C° 0 mm 4 mps 779 mmHg 63%
    14:00 +12°C° 0 mm 4 mps 779 mmHg 64%
    15:00 +12°C° 0 mm 4 mps 779 mmHg 65%
    16:00 +11°C° 0 mm 4 mps 779 mmHg 70%
    17:00 +10°C° 0 mm 4 mps 779 mmHg 75%
    18:00 +8°C° 0 mm 4 mps 779 mmHg 81%
    19:00 +7°C° 0 mm 4 mps 780 mmHg 83%
    20:00 +7°C° 0 mm 4 mps 780 mmHg 85%
    21:00 +8°C° 0 mm 3 mps 780 mmHg 87%
    22:00 +7°C° 0 mm 3 mps 779 mmHg 88%
    23:00 +7°C° 0 mm 3 mps 779 mmHg 89%
    Show more